{"data":{"norad_id":41923,"intl_designator":"2017-003G","name":"IRIDIUM 114","alt_names":[],"object_type":"PAYLOAD","status":"ACTIVE","operator":null,"country":"US","launch_date":"2017-01-14","launch_site_code":"AFWTR","launch_vehicle":null,"mission":null,"orbit_class":"UNKNOWN","rcs_meters":2.4372,"size_class":null,"mass_kg":null,"dimensions":null,"purposes":["comms"],"wikipedia_slug":null,"has_3d_model":false,"image_url":null,"decayed_at":null,"tle_current":{"epoch":"2026-05-24T21:55:10.289856Z","epoch_age_seconds":96730,"freshness":"FRESH","line1":"1 41923U 17003G   26144.91331354  .00000039  00000+0  66941-5 0  9998","line2":"2 41923  86.3949  98.1939 0002460  86.5938 273.5539 14.34217802489917","mean_motion":14.34217802,"eccentricity":0.000246,"inclination_deg":86.3949,"raan_deg":98.1939,"arg_perigee_deg":86.5938,"mean_anomaly_deg":273.5539,"bstar":6.6941e-6,"rev_number":48991,"period_min":100.40316038414,"perigee_km":775.90665361018,"apogee_km":779.42730916902,"semimajor_km":7155.8039813896,"source":"CELESTRAK","updated_at":"2026-05-25T13:38:14.764359Z"}}}